User: anonymous
Location: Unspecified
(0.0000°N, 0.0000°E)
Time: 06:23:48
(UTC+02:00)
Language:

Cosmos 1943 Rocket - Orbit

View from above orbital plane
View from above orbital plane
View from above satellite
View from above satellite

Ground track
Ground track

The orbit data is extracted from the following two-line orbital elements,

1 19120U 88039B   14274.11652696  .00000005  00000-0  25555-4 0  1729
2 19120 071.0145 256.7234 0024231 267.2362 161.6855 14.19044112365937
Epoch (UTC): 01 October 2014 02:47:47
Eccentricity: 0.0024231
inclination: 71.0145°
perigee height: 811 km
apogee height: 846 km
right ascension of ascending node: 256.7234°
argument of perigee: 267.2362°
revolutions per day: 14.19044112
mean anomaly at epoch: 161.6855°
orbit number at epoch: 36593

The dashed part of the orbit path shows where the satellite is in the earth's shadow,  

DLR